DW1084 Weather Reports


time (UTC)temp
C
wind
direction
speed
KPH
gust
KPH
rain 1hr
cm
rain 24hr
cm
rain mn
cm
humidity
%
barometer
mb
20260505004543 17 134 3.2 0.0 0.00 0.00 0.00 50 1008.6
20260505003024 17 145 3.2 0.0 0.00 0.00 0.00 48 1008.5
20260505001604 18 131 3.2 0.0 0.00 0.00 0.00 47 1008.3
20260505000044 18 129 1.6 0.0 0.00 0.00 0.00 45 1008.2
20260504234521 20 132 3.2 0.0 0.00 0.00 0.00 42 1008.2
20260504233106 21 127 4.8 0.0 0.00 0.00 0.00 41 1008.2
20260504231531 21 132 4.8 0.0 0.00 0.00 0.00 39 1008.3
20260504230007 22 133 4.8 0.0 0.00 0.00 0.00 38 1008.3
20260504224549 22 126 4.8 0.0 0.00 0.00 0.00 39 1008.3
20260504223021 22 126 4.8 0.0 0.00 0.00 0.00 37 1008.2
20260504221600 22 136 4.8 0.0 0.00 0.00 0.00 36 1008.2
20260504221501 22 130 4.8 0.0 0.00 0.00 0.00 35 1008.2
20260504220035 22 128 6.4 0.0 0.00 0.00 0.00 38 1008.3
20260504214515 22 132 6.4 0.0 0.00 0.00 0.00 36 1008.4
20260504213055 22 140 6.4 0.0 0.00 0.00 0.00 34 1008.4
20260504211530 23 124 6.4 0.0 0.00 0.00 0.00 35 1008.5
20260504210009 23 123 6.4 0.0 0.00 0.00 0.00 36 1008.5
20260504204548 23 138 8.0 0.0 0.00 0.00 0.00 35 1008.4
20260504203025 23 119 4.8 0.0 0.00 0.00 0.00 33 1008.5
20260504201555 23 151 6.4 0.0 0.00 0.00 0.00 33 1008.7
20260504200035 23 192 4.8 0.0 0.00 0.00 0.00 37 1009.0
20260504194516 23 117 6.4 0.0 0.00 0.00 0.00 36 1009.3
20260504193051 23 111 4.8 0.0 0.00 0.00 0.00 36 1009.4
20260504191529 22 126 4.8 0.0 0.00 0.00 0.00 39 1009.7
20260504190004 22 141 4.8 0.0 0.00 0.00 0.00 35 1009.8
20260504184543 22 121 6.4 0.0 0.00 0.00 0.00 35 1009.9
20260504183020 22 157 3.2 0.0 0.00 0.00 0.00 37 1009.9
20260504181558 22 269 4.8 0.0 0.00 0.00 0.00 40 1010.4
20260504180033 21 161 6.4 0.0 0.00 0.00 0.00 39 1010.5
20260504174513 22 169 4.8 0.0 0.00 0.00 0.00 39 1010.6
20260504173056 22 136 3.2 0.0 0.00 0.00 0.00 40 1010.7
20260504171527 22 213 6.4 0.0 0.00 0.00 0.00 39 1011.0
20260504081600 4 308 0.0 0.0 0.00 0.00 0.00 78 1013.8
20260504050008 8 249 0.0 0.0 0.00 0.00 0.00 53 1013.7
20260504044544 8 214 1.6 0.0 0.00 0.00 0.00 54 1013.7
20260504043020 8 180 1.6 0.0 0.00 0.00 0.00 57 1013.6
20260504041554 6 258 0.0 0.0 0.00 0.00 0.00 64 1013.4
20260504040034 5 259 1.6 0.0 0.00 0.00 0.00 75 1013.5
20260504034508 5 264 0.0 0.0 0.00 0.00 0.00 75 1013.4
20260504033051 5 264 0.0 0.0 0.00 0.00 0.00 77 1013.1
20260504031522 5 264 0.0 0.0 0.00 0.00 0.00 75 1013.2
20260504030059 6 264 0.0 0.0 0.00 0.00 0.00 72 1013.1
20260504030001 6 264 0.0 0.0 0.00 0.00 0.00 72 1013.0
20260504024535 6 264 0.0 0.0 0.00 0.00 0.00 71 1013.0
20260504023015 6 264 0.0 0.0 0.00 0.00 0.00 69 1013.0
20260504021549 6 265 0.0 0.0 0.00 0.00 0.00 69 1012.9
20260504020030 7 265 0.0 0.0 0.00 0.00 0.00 65 1013.0
20260504014510 7 265 0.0 0.0 0.00 0.00 0.00 63 1013.0
20260504013046 8 265 0.0 0.0 0.00 0.00 0.00 59 1012.8
20260504011524 9 265 0.0 0.0 0.00 0.00 0.00 55 1012.7
20260504010114 10 265 0.0 0.0 0.00 0.00 0.00 52 1012.4